Cuero, Texas, United States (77954)
Lat: 29.09N, Lon: 97.29W
Wx Zone: TXZ224
Local Info
Past Weather Observations for Today

NOTE: This archive is for the closest National Weather Service station to Cuero. Information may differ from the station used for current weather conditions.

Click here for Long-term Archive

Time Weather Temperature Dewpoint Humidity Pressure Winds Precip Visibility
18:51
Partly Cloudy
81°F / 27°C 73°F / 23°C 79% 29.95 in
(1014 mb)
SE 10.4 mph
(SE 17 kph)
- 10SM
17:51
Partly Cloudy
82°F / 28°C 72°F / 22°C 70% 29.95 in
(1014 mb)
SE 10.4 mph
(SE 17 kph)
- 10SM
16:51
Partly Cloudy
84°F / 29°C 73°F / 23°C 70% 29.95 in
(1014 mb)
SE 16.1 mph
(SE 26 kph)
- 10SM
15:51
Mostly Cloudy
84°F / 29°C 73°F / 23°C 70% 29.95 in
(1014 mb)
SE 18.4 mph
(SE 30 kph)
0.00 in
(0.00 mm)
10SM
14:51
Partly Cloudy
Light Rain
88°F / 31°C 75°F / 24°C 66% 29.95 in
(1014 mb)
SE 20.7 mph
(SE 33 kph)
0.00 in
(0.00 mm)
10SM
14:11
Overcast
84°F / 29°C 75°F / 24°C 74% 29.95 in
(1014 mb)
SE 19.6 mph
(SE 32 kph)
- 10SM
13:51
Mostly Cloudy
86°F / 30°C 75°F / 24°C 70% 29.95 in
(1014 mb)
SE 13.8 mph
(SE 22 kph)
- 10SM
13:04
Mostly Cloudy
86°F / 30°C 75°F / 24°C 70% 29.95 in
(1014 mb)
SE 13.8 mph
(SE 22 kph)
- 10SM
12:51
Mostly Cloudy
86°F / 30°C 75°F / 24°C 70% 29.95 in
(1014 mb)
ESE 15 mph
(ESE 24 kph)
- 10SM
11:51
Overcast
84°F / 29°C 73°F / 23°C 70% 29.98 in
(1015 mb)
SSE 15 mph
(SSE 24 kph)
- 10SM
10:51
Overcast
86°F / 30°C 75°F / 24°C 70% 29.95 in
(1014 mb)
SSE 17.3 mph
(SSE 28 kph)
- 10SM
09:51
Overcast
84°F / 29°C 75°F / 24°C 74% 29.95 in
(1014 mb)
SSE 17.3 mph
(SSE 28 kph)
- 10SM
09:09
Overcast
82°F / 28°C 75°F / 24°C 79% 29.95 in
(1014 mb)
SSE 13.8 mph
(SSE 22 kph)
- 10SM
08:51
Overcast
82°F / 28°C 75°F / 24°C 79% 29.95 in
(1014 mb)
SSE 13.8 mph
(SSE 22 kph)
- 10SM
08:13
Mostly Cloudy
81°F / 27°C 75°F / 24°C 84% 29.95 in
(1014 mb)
SSE 12.7 mph
(SSE 20 kph)
- 9SM
07:58
Mostly Cloudy
81°F / 27°C 75°F / 24°C 84% 29.95 in
(1014 mb)
SE 12.7 mph
(SE 20 kph)
- 8SM
07:51
Partly Cloudy
81°F / 27°C 75°F / 24°C 84% 29.95 in
(1014 mb)
SSE 11.5 mph
(SSE 19 kph)
- 8SM
06:58
Partly Cloudy
Fog And Mist
79°F / 26°C 75°F / 24°C 89% 29.92 in
(1013 mb)
SE 10.4 mph
(SE 17 kph)
- 6SM
06:51
Partly Cloudy
Fog And Mist
79°F / 26°C 75°F / 24°C 89% 29.92 in
(1013 mb)
SE 8.1 mph
(SE 13 kph)
- 6SM
05:51
Partly Cloudy
Fog And Mist
75°F / 24°C 73°F / 23°C 94% 29.89 in
(1012 mb)
SE 9.2 mph
(SE 15 kph)
- 5SM
05:44
Partly Cloudy
Fog And Mist
75°F / 24°C 73°F / 23°C 94% 29.89 in
(1012 mb)
SE 9.2 mph
(SE 15 kph)
- 5SM
05:34
Mostly Cloudy
Fog And Mist
75°F / 24°C 73°F / 23°C 94% 29.89 in
(1012 mb)
SE 11.5 mph
(SE 19 kph)
- 5SM
05:27
Partly Cloudy
Fog And Mist
75°F / 24°C 73°F / 23°C 94% 29.89 in
(1012 mb)
SE 10.4 mph
(SE 17 kph)
- 5SM
04:51
Overcast
Fog And Mist
75°F / 24°C 75°F / 24°C 100% 29.89 in
(1012 mb)
SSE 10.4 mph
(SSE 17 kph)
- 6SM
04:25
Mostly Cloudy
Fog And Mist
75°F / 24°C 73°F / 23°C 94% 29.89 in
(1012 mb)
SE 10.4 mph
(SE 17 kph)
- 6SM
04:08
Partly Cloudy
Fog And Mist
75°F / 24°C 73°F / 23°C 94% 29.89 in
(1012 mb)
SE 9.2 mph
(SE 15 kph)
- 6SM
03:51
Mostly Cloudy
Fog And Mist
75°F / 24°C 73°F / 23°C 94% 29.89 in
(1012 mb)
SE 8.1 mph
(SE 13 kph)
- 5SM
02:51
Overcast
Fog And Mist
75°F / 24°C 73°F / 23°C 94% 29.89 in
(1012 mb)
E 5.8 mph
(E 9 kph)
- 5SM
01:51
Mostly Cloudy
75°F / 24°C 73°F / 23°C 94% 29.92 in
(1013 mb)
ESE 5.8 mph
(ESE 9 kph)
- 7SM
01:14
Overcast
75°F / 24°C 73°F / 23°C 94% 29.92 in
(1013 mb)
ESE 5.8 mph
(ESE 9 kph)
- 8SM
00:51
Overcast
75°F / 24°C 73°F / 23°C 94% 29.92 in
(1013 mb)
SE 4.6 mph
(SE 7 kph)
- 8SM
00:24
Mostly Cloudy
75°F / 24°C 73°F / 23°C 94% 29.92 in
(1013 mb)
SE 4.6 mph
(SE 7 kph)
- 9SM
Time Weather Temperature Dewpoint Humidity Pressure Winds Precip Visibility


Weather for websites

WeatherForYou.com, LLC is not responsible for any damages or problems caused by this service. Current weather conditions are obtained from the closest station including government and personal stations which may have varying degrees of accuracy. Weather forecasts are derived from the NOAA NDFD. Like all things, this site belongs to Jesus Christ... He just trusts us to maintain it. If you have any questions or comments email webmaster@weatherforyou.com

Copyright © 2016, WeatherForYou.com LLC. All rights reserved.